Regional Weather Roundup
Issued by NWS Memphis, TN

Home | Current Version | Previous Version | Text Only | Print | Product List | Glossary On
Versions: 1 2 3 4 5 6 7 8 9 10 11 12 13 14 15 16 17 18 19 20 21 22 23 24 25 26 27 28 29 30 31 32 33 34 35 36 37 38 39 40 41 42 43 44 45 46 47 48 49 50
000
ASUS44 KMEG 062010
RWRMEG
MEMPHIS CWA HOURLY WEATHER ROUNDUP
NATIONAL WEATHER SERVICE MEMPHIS TN
300 PM CDT FRI MAY 06 2016

...WEST TENNESSEE...

CITY           SKY/WX    TMP DP  RH WIND       PRES   REMARKS
MEMPHIS INTL   MOSUNNY   74  46  36 VRB7      30.06F
NWS MEMPHIS      N/A     73 N/A N/A MISG        N/A
JACKSON        MOSUNNY   72  45  37 N12       30.05F
LEXINGTON      MOSUNNY   72  43  35 NW10      30.02F
DYERSBURG      SUNNY     72  43  35 N13       30.05F
UNION CITY     SUNNY     72  43  35 W7        30.03F


...EASTERN ARKANSAS...

CITY           SKY/WX    TMP DP  RH WIND       PRES   REMARKS
JONESBORO      SUNNY     74  44  34 W10G16    30.06F
WEST MEMPHIS   SUNNY     72  46  39 VRB7      30.06F
BATESVILLE     SUNNY     75  43  31 W5        30.07F
NEWPORT        SUNNY     76  43  30 W6        30.07F
WALNUT RIDGE   SUNNY     73  43  33 W7        30.06F
BLYTHEVILLE    SUNNY     74  42  31 NW8       30.06F
NW BLYTHEVILLE SUNNY     73  45  35 NW7G18    30.05F
SEARCY         SUNNY     73  48  40 VRB3      30.09F
STUTTGART      SUNNY     73  46  38 NW6       30.10F
PINE BLUFF     SUNNY     73  43  33 N7        30.09F
MONTICELLO     SUNNY     76  39  26 VRB5      30.08F


...NORTH MISSISSIPPI...

CITY           SKY/WX    TMP DP  RH WIND       PRES   REMARKS
TUPELO         MOSUNNY   73  41  31 NW12      30.03F
OXFORD         SUNNY     72  43  35 N8        30.07F
BATESVILLE     FAIR      73  43  33 NW3       30.07F
OLIVE BRANCH   MOSUNNY   72  46  40 NW10      30.06F
TUNICA         SUNNY     70  46  43 NW8G16    30.07F
CORINTH        MOSUNNY   72  43  35 N9G15     30.03F
GREENWOOD      SUNNY     74  43  32 VRB6      30.06F
COLUMBUS       MOSUNNY   73  51  46 N7G18     30.02F
STARKVILLE     FAIR      72  45  37 N5        30.03F
GOLDEN TRIANGL MOSUNNY   75  46  35 N14       30.04F


...SOUTHEAST MISSOURI...

CITY           SKY/WX    TMP DP  RH WIND       PRES   REMARKS
KENNETT        FAIR      73  43  33 VRB7G17   30.04F
WEST PLAINS    SUNNY     75  43  31 VRB5      30.08F
POPLAR BLUFF   SUNNY     75  42  30 N7        30.04F
CAPE GIRARDEAU SUNNY     74  39  28 VRB5G17   30.02F


...NORTHWEST ALABAMA...

CITY           SKY/WX    TMP DP  RH WIND       PRES   REMARKS
MUSCLE SHOALS  MOSUNNY   74  38  27 NW10      30.02F


...MIDDLE TENNESSEE...

CITY           SKY/WX    TMP DP  RH WIND       PRES   REMARKS
NASHVILLE      PTSUNNY   72  40  31 NW14G20   30.00F
CLARKSVILLE    MOSUNNY   69  44  40 NW12      30.01F
COLUMBIA       MOSUNNY   70  45  40 N9        30.00F


...WESTERN KENTUCKY...

CITY           SKY/WX    TMP DP  RH WIND       PRES   REMARKS
PADUCAH        SUNNY     74  44  34 VRB6      30.02F
FORT CAMPBELL  MOSUNNY   70  47  43 NW13      30.01F


...CENTRAL ARKANSAS...

CITY           SKY/WX    TMP DP  RH WIND       PRES   REMARKS
LITTLE ROCK    SUNNY     77  42  28 N6        30.09F


SKY/WX REPORTED AS FAIR MEANS FEW OR NO CLOUDS BELOW
12 THOUSAND FEET.




USA.gov is the U.S. government's official web portal to all federal, state and local government web resources and services.